STARLINK-1593 (46119 NORAD) Tracking and Keplerian Element Data

This shows tracking and keplerian element data for the satellite.

Feedback or suggestion? Click here.




ElementValue
Catalog46119
NameSTARLINK-1593
Epoch Orbit184
Epoch Day336.91667824
Epoch Year2020
RAAN312.7651
Inclination52.9999
Eccentricity0.0001641
Argument of Perigee67.456
Mean Anonmoly153.285
Mean Motion15.05594768
Decay Rate-0.00026365
L11 46119U 20057C 20336.91667824 -.00026365 00000-0 -17963-2 0 9994
L22 46119 52.9999 312.7651 0001641 67.4560 153.2850 15.05594768 1848

Live tracking and technical data element details for STARLINK-1593 (NORAD 46119). STARLINK-1593 can be tracked NOW for your location showing map with azimuth and elevation plus other details from your city location.

Track the satellite on the map from your city or location and see movement details for azimuth, elevation, latitude, longitude, range, height, and movement on the map or in text.







IsCatalogInMostPopularTable: catalog: 46119, numindb: 22
Update: records affected: 1



GetName: 46119 STARLINK-1593

Hit Count: updated at: Thu, 03 Dec 2020 07:30:59 GMT